Regional Weather Roundup
Issued by NWS Green Bay, WI

Home | Current Version | Previous Version | Text Only | Print | Product List | Glossary On
Versions: 1 2 3 4 5 6 7 8 9 10 11 12 13 14 15 16 17 18 19 20 21 22 23 24 25 26 27 28 29 30 31 32 33 34 35 36 37 38 39 40 41 42 43 44 45 46 47 48 49 50
000
ASUS43 KGRB 261411
RWRGRB

NORTH-CENTRAL AND NORTHEAST WISCONSIN REGIONAL WEATHER ROUNDUP
NATIONAL WEATHER SERVICE GREEN BAY WI
900 AM CDT TUE SEP 26 2017

WIZ005-009-010>012-018-019-261500-
NORTH CENTRAL WISCONSIN

CITY           SKY/WX    TMP DP  RH WIND       PRES   REMARKS
IRONWOOD       CLOUDY    57  57 100 CALM      29.91S FOG
MANITOWISH WTR NOT AVBL
ARBOR VITAE    CLOUDY    64  64  97 SW3       29.93R FOG
EAGLE RIVER    CLOUDY    64  64 100 SW5       29.92S
LAND O LAKES   CLOUDY    64  64 100 SW3       29.94R FOG
RHINELANDER    CLOUDY    65  65 100 SW7       29.94R
PHILLIPS       CLOUDY    63  63 100 SW3       29.92R FOG
ANTIGO         CLOUDY    65  65  99 S5        29.95R
TOMAHAWK       CLOUDY    63  62  97 CALM      29.94R FOG
MERRILL        CLOUDY    67  66  98 SW6       29.94R
$$

WIZ013-073-261500-
NORTHEAST WISCONSIN

CITY           SKY/WX    TMP DP  RH WIND       PRES   REMARKS
IRON MOUNTAIN  CLOUDY    64  61  90 S3        29.92S FOG
MARINETTE      CLOUDY    66  65  96 CALM      29.93R FOG
OCONTO         CLOUDY    65  65  99 CALM      29.92S
$$

WIZ017-030-035>037-045-261500-
CENTRAL WISCONSIN

CITY           SKY/WX    TMP DP  RH WIND       PRES   REMARKS
MEDFORD        CLOUDY    63  63  98 SW3       29.92F FOG
WAUSAU         CLOUDY    66  65  96 SW8       29.92R
MOSINEE        CLOUDY    64  64 100 S8        29.95R FOG
MARSHFIELD     CLOUDY    66  63  90 SW7       29.93S
WISC RAPIDS    CLOUDY    68  66  93 SW6       29.95R
STEVENS POINT  CLOUDY    65  65 100 S5        29.95R
WAUPACA        CLOUDY    69  68  96 CALM      29.93S
SHAWANO        CLOUDY    68  65  90 CALM      29.92S
CLINTONVILLE   CLOUDY    66  64  94 CALM      29.92S
WAUTOMA        CLOUDY    67  65  93 CALM      29.94S
$$

WIZ038-039-048-051-261500-
FOX VALLEY

CITY           SKY/WX    TMP DP  RH WIND       PRES   REMARKS
NWS GREEN BAY  CLOUDY    68  66  93 SE7       29.92F
APPLETON       PTSUNNY   70  66  88 S3        29.91F
OSHKOSH        MOSUNNY   71  66  84 CALM      29.92F
FOND DU LAC    CLOUDY    70  62  76 CALM      29.93S
$$

WIZ022-050-052-261500-
EAST CENTRAL WISCONSIN

CITY           SKY/WX    TMP DP  RH WIND       PRES   REMARKS
EPHRAIM        FAIR      69  64  83 CALM      29.91S
WASHINGTON ISL FAIR      68  66  94 S6        29.90F
STURGEON BAY   MOSUNNY   71  63  75 S6        29.93R
MANITOWOC      PTSUNNY   71  63  75 CALM      29.92F
SHEBOYGAN      MOSUNNY   69  66  90 W5        29.93S
$$

LMZ563-521-522-541>543-261500-
LAKESHORE

STATION/POSITION TIME  TEMP    WIND        PRES    VSBY  WAVE
                       AIR SEA DIR/SP/G                  HT/PER
                 (UTC) (F)     (DEG/KT/KT) (MB)    (MI)  (FT/S)
SHEBOYGAN LKSHOR 1400   69     170/  4/  4 1012.7F
KEWAUNEE LKSHORE 1348   65        CALM     1012.3S
NORTHPORT PIER   1340   68     150/  5/  7 1012.5F
N MID LAKE BUOY  1350   69 67  180/  8/ 10 1013.3S         1
S GREEN BAY BUOY 1400   67 70  220/  2/  4 1013.0
SISTER BAY LKSHO 1404   72     170/  6/  8   N/A
MENOMINEE LKSHOR 1348   66      CALM  /  1 1012.9R
$$




USA.gov is the U.S. government's official web portal to all federal, state and local government web resources and services.